Temp
-3 -3 -3 -3 -3 -2 -3 -3 -3 -3 -3 -3 -3 -3 -3 -3 -3 -3 -3 -4 -4 -4 -4 -5 -6 -6 -6 -6 -5 -6 -7 -7 -7 -6 -7 -7 -6 -6 -6 -6 -6 -6 -6 -6 -6
-3 -3 -3 -3 -3 -3 -3 -3 -3 -3 -3 -3 -3 -3 -3 -2 -3 -3 -3 -3 -4 -4 -4 -5 -6 -6 -6 -6 -6 -5 -7 -7 -7 -7 -7 -7 -7 -6 -6 -6 -6 -6 -6 -6 -6
-3 -3 -3 -3 -3 -3 -3 -3 -3 -3 -3 -3 -3 -3 -3 -3 -2 -3 -3 -3 -4 -4 -5 -5 -5 -6 -6 -6 -6 -6 -6 -7 -7 -7 -7 -7 -7 -6 -6 -6 -6 -6 -6 -6 -6
-3 -3 -3 -3 -3 -3 -3 -3 -3 -3 -3 -3 -3 -3 -3 -3 -3 -3 -3 -3 -3 -4 -4 -5 -5 -5 -6 -6 -6 -6 -7 -6 -7 -7 -7 -7 -7 -7 -7 -6 -6 -6 -6 -6 -6
-4 -3 -3 -3 -3 -3 -3 -3 -3 -3 -3 -3 -3 -3 -3 -3 -3 -3 -3 -3 -3 -4 -4 -5 -5 -5 -5 -6 -6 -6 -6 -7 -6 -7 -7 -7 -7 -7 -7 -7 -7 -7 -6 -6 -6
-4 -4 -3 -3 -3 -3 -3 -3 -3 -4 -3 -4 -4 -3 -3 -3 -3 -3 -3 -3 -3 -4 -4 -5 -5 -5 -6 -6 -6 -6 -6 -6 -6 -7 -7 -7 -7 -7 -7 -7 -7 -7 -7 -7 -6
-4 -4 -4 -4 -3 -3 -3 -3 -3 -4 -4 -4 -4 -4 -4 -4 -3 -3 -3 -3 -3 -3 -4 -4 -5 -5 -6 -7 -6 -7 -6 -6 -6 -6 -6 -7 -6 -6 -7 -7 -7 -8 -7 -7 -7
-5 -4 -4 -4 -4 -3 -3 -3 -4 -4 -4 -4 -4 -4 -4 -4 -4 -3 -3 -3 -3 -3 -4 -4 -5 -5 -6 -7 -6 -7 -7 -7 -6 -6 -7 -6 -7 -6 -7 -7 -8 -8 -7 -7 -7
-5 -5 -4 -4 -4 -4 -4 -4 -4 -4 -4 -4 -4 -4 -4 -4 -4 -4 -4 -4 -4 -4 -4 -4 -5 -5 -6 -7 -8 -7 -7 -7 -7 -6 -6 -6 -7 -7 -7 -7 -8 -8 -7 -7 -7
-6 -5 -5 -4 -4 -4 -4 -4 -4 -4 -4 -4 -4 -4 -4 -4 -4 -4 -4 -4 -4 -4 -4 -4 -4 -5 -6 -7 -8 -8 -7 -7 -7 -6 -7 -6 -7 -7 -7 -7 -7 -8 -8 -7 -7
-6 -5 -5 -5 -4 -4 -4 -4 -4 -4 -4 -4 -4 -4 -4 -4 -4 -4 -4 -4 -4 -4 -4 -4 -5 -5 -6 -7 -8 -8 -8 -7 -7 -7 -7 -6 -6 -6 -7 -7 -7 -8 -8 -8 -7
-6 -6 -5 -5 -5 -5 -5 -5 -5 -4 -4 -4 -4 -4 -4 -4 -4 -4 -4 -4 -5 -5 -5 -5 -5 -5 -6 -7 -8 -8 -8 -7 -8 -7 -7 -6 -7 -6 -6 -7 -7 -7 -7 -7 -7
-6 -6 -6 -5 -5 -5 -5 -5 -5 -5 -5 -5 -5 -5 -5 -5 -5 -4 -4 -4 -5 -4 -5 -5 -6 -6 -6 -7 -8 -8 -8 -8 -7 -7 -7 -7 -7 -6 -6 -7 -7 -7 -7 -7 -7
-7 -6 -6 -6 -6 -5 -5 -5 -5 -5 -5 -5 -5 -5 -5 -5 -5 -5 -5 -5 -5 -5 -5 -5 -5 -5 -6 -7 -7 -8 -8 -8 -8 -7 -6 -7 -7 -7 -7 -7 -7 -7 -7 -7 -7
-7 -7 -6 -6 -6 -6 -6 -6 -6 -6 -6 -6 -6 -6 -5 -5 -5 -5 -5 -5 -5 -5 -5 -6 -5 -6 -6 -6 -7 -7 -8 -9 -7 -7 -7 -7 -7 -7 -7 -7 -7 -7 -7 -7 -7
-7 -7 -6 -6 -6 -6 -6 -6 -6 -6 -6 -6 -6 -6 -6 -5 -5 -6 -5 -5 -5 -5 -6 -5 -6 -6 -6 -6 -6 -6 -7 -7 -7 -7 -7 -7 -7 -7 -7 -7 -7 -7 -7 -7 -7
-7 -7 -7 -7 -6 -6 -6 -6 -6 -7 -6 -6 -6 -6 -6 -6 -6 -6 -6 -6 -6 -6 -6 -6 -6 -6 -6 -6 -6 -6 -6 -7 -8 -8 -7 -7 -7 -6 -7 -7 -7 -7 -7 -7 -7
-7 -7 -7 -7 -6 -6 -6 -6 -6 -6 -7 -6 -6 -6 -6 -6 -6 -6 -6 -6 -7 -7 -7 -7 -7 -7 -6 -6 -7 -6 -7 -8 -8 -8 -8 -8 -7 -6 -7 -7 -7 -7 -7 -7 -7
-7 -7 -7 -7 -7 -7 -7 -7 -7 -7 -7 -7 -7 -6 -6 -6 -6 -6 -7 -7 -7 -8 -8 -7 -7 -7 -7 -6 -7 -7 -8 -8 -8 -7 -7 -7 -7 -8 -7 -7 -7 -7 -7 -7 -7
-8 -7 -7 -7 -7 -7 -7 -7 -7 -7 -7 -7 -7 -7 -6 -6 -6 -6 -7 -7 -8 -8 -8 -8 -8 -7 -7 -6 -7 -8 -8 -8 -8 -7 -7 -7 -7 -8 -8 -8 -7 -7 -7 -7 -7
-8 -8 -8 -7 -7 -7 -7 -7 -7 -7 -7 -8 -7 -6 -6 -6 -6 -7 -7 -7 -7 -8 -8 -8 -8 -8 -8 -8 -8 -8 -8 -8 -8 -7 -7 -7 -8 -8 -8 -8 -8 -7 -7 -7 -7
-8 -8 -8 -8 -7 -7 -7 -7 -7 -8 -8 -8 -8 -7 -7 -7 -7 -7 -7 -7 -7 -8 -8 -8 -8 -8 -8 -8 -8 -8 -8 -8 -8 -8 -7 -7 -8 -8 -8 -8 -8 -8 -7 -7 -7
-8 -8 -8 -8 -8 -7 -7 -7 -8 -8 -8 -8 -8 -8 -8 -8 -8 -8 -8 -8 -8 -8 -9 -9 -8 -8 -8 -8 -8 -8 -8 -8 -8 -8 -8 -8 -8 -8 -8 -8 -8 -8 -8 -8 -8
-8 -8 -8 -8 -8 -8 -7 -7 -8 -8 -8 -8 -8 -9 -9 -9 -8 -9 -8 -8 -8 -8 -9 -9 -9 -9 -8 -8 -8 -8 -8 -8 -8 -8 -8 -8 -8 -8 -8 -8 -8 -8 -8 -8 -8
-8 -8 -8 -8 -8 -8 -7 -7 -8 -8 -8 -8 -8 -8 -8 -9 -9 -9 -9 -9 -9 -9 -9 -9 -9 -8 -9 -8 -8 -8 -8 -8 -8 -8 -8 -8 -8 -8 -9 -9 -9 -9 -9 -9 -8
-8 -8 -8 -8 -8 -8 -8 -7 -8 -8 -8 -8 -8 -8 -9 -8 -9 -9 -9 -9 -9 -9 -9 -9 -9 -9 -9 -9 -9 -9 -9 -9 -9 -9 -9 -9 -9 -9 -9 -9 -9 -9 -9 -9 -9
-9 -9 -8 -8 -8 -8 -8 -7 -7 -8 -8 -8 -8 -8 -8 -9 -9 -9 -9 -9 -9 -9 -9 -9 -9 -9 -9 -9 -9 -9 -9 -9 -9 -9 -9 -9 -9 -9 -9 -9 -9 -9 -9 -9 -9
Height
5903 5905 5907 5909 5911 5913 5914 5915 5916 5917 5918 5918 5919 5919 5920 5920 5920 5921 5922 5925 5925 5925 5925 5925 5927 5930 5928 5927 5927 5925 5924 5923 5922 5921 5920 5920 5917 5915 5913 5912 5910 5909 5908 5908 5908
5899 5901 5904 5906 5908 5910 5912 5913 5915 5916 5917 5918 5919 5919 5920 5920 5921 5921 5923 5923 5924 5925 5926 5925 5928 5930 5930 5929 5929 5928 5926 5925 5924 5923 5922 5922 5920 5918 5917 5915 5913 5912 5910 5909 5909
5895 5897 5899 5902 5904 5907 5909 5910 5912 5913 5915 5916 5917 5918 5919 5920 5921 5921 5921 5923 5924 5924 5925 5925 5928 5930 5929 5930 5931 5931 5929 5928 5927 5926 5926 5925 5923 5921 5920 5919 5917 5915 5913 5912 5910
5891 5893 5895 5897 5900 5903 5905 5907 5909 5911 5913 5914 5916 5916 5918 5919 5922 5921 5921 5922 5923 5925 5925 5926 5927 5930 5929 5930 5932 5933 5933 5931 5929 5929 5929 5927 5926 5923 5922 5921 5919 5918 5916 5914 5912
5885 5888 5891 5893 5895 5898 5901 5903 5905 5907 5909 5912 5913 5914 5916 5918 5919 5919 5920 5921 5921 5923 5924 5924 5926 5929 5930 5930 5932 5934 5934 5934 5931 5931 5930 5929 5928 5926 5924 5923 5922 5920 5917 5915 5913
5880 5882 5885 5888 5891 5893 5896 5899 5901 5903 5906 5908 5910 5912 5914 5916 5916 5917 5918 5919 5920 5921 5923 5923 5925 5927 5928 5929 5932 5934 5935 5934 5934 5932 5931 5931 5930 5928 5927 5925 5923 5922 5919 5916 5914
5875 5877 5880 5882 5885 5888 5891 5893 5896 5899 5902 5904 5906 5908 5910 5913 5913 5914 5916 5918 5919 5919 5920 5921 5923 5926 5928 5928 5931 5932 5935 5935 5935 5933 5932 5931 5931 5929 5927 5926 5924 5923 5920 5918 5915
5870 5872 5874 5876 5879 5882 5885 5888 5891 5894 5897 5899 5902 5904 5907 5909 5910 5912 5914 5916 5917 5917 5918 5918 5921 5925 5926 5927 5928 5932 5933 5934 5934 5934 5932 5932 5930 5930 5929 5928 5926 5924 5922 5919 5918
5865 5866 5868 5871 5873 5877 5879 5882 5886 5888 5891 5894 5897 5899 5902 5904 5906 5909 5911 5913 5914 5915 5915 5916 5920 5922 5925 5926 5927 5929 5931 5933 5933 5932 5930 5931 5931 5932 5932 5929 5928 5926 5923 5922 5919
5860 5861 5863 5865 5868 5870 5873 5876 5879 5882 5885 5888 5891 5895 5898 5901 5902 5904 5905 5909 5911 5911 5912 5914 5917 5920 5923 5924 5925 5927 5930 5932 5931 5931 5930 5931 5931 5932 5931 5931 5930 5927 5925 5922 5921
5856 5857 5858 5859 5862 5864 5867 5870 5874 5877 5879 5883 5886 5889 5892 5895 5896 5898 5901 5904 5906 5908 5909 5911 5915 5917 5920 5921 5923 5925 5928 5930 5930 5931 5932 5932 5931 5931 5931 5930 5930 5929 5927 5924 5921
5852 5852 5853 5854 5856 5858 5861 5863 5867 5871 5874 5877 5880 5883 5886 5889 5892 5893 5897 5900 5901 5904 5905 5908 5911 5914 5916 5918 5921 5923 5926 5928 5929 5929 5931 5931 5932 5930 5930 5929 5928 5929 5928 5926 5923
5848 5848 5848 5850 5850 5853 5855 5858 5861 5865 5869 5871 5874 5878 5881 5884 5886 5889 5892 5895 5897 5899 5902 5904 5908 5909 5911 5915 5918 5921 5924 5925 5926 5927 5928 5929 5931 5931 5930 5928 5927 5927 5927 5927 5924
5844 5845 5845 5846 5848 5849 5851 5854 5856 5860 5863 5868 5870 5872 5875 5877 5881 5884 5887 5890 5892 5895 5896 5899 5902 5905 5907 5911 5915 5919 5921 5921 5923 5924 5926 5927 5929 5928 5927 5926 5925 5925 5925 5925 5923
5841 5841 5841 5842 5843 5845 5847 5849 5852 5855 5859 5862 5864 5868 5871 5875 5878 5880 5883 5885 5887 5890 5894 5897 5898 5901 5904 5908 5911 5915 5917 5918 5919 5921 5921 5922 5924 5926 5924 5924 5924 5924 5923 5923 5922
5838 5838 5838 5839 5840 5842 5843 5846 5849 5853 5853 5857 5860 5864 5867 5870 5873 5876 5879 5881 5884 5886 5888 5890 5894 5897 5903 5905 5907 5911 5913 5914 5916 5917 5919 5920 5921 5923 5922 5922 5922 5922 5921 5920 5919
5834 5835 5835 5836 5838 5839 5841 5844 5847 5848 5852 5855 5857 5860 5863 5866 5869 5871 5874 5877 5879 5882 5884 5887 5891 5895 5899 5902 5906 5909 5910 5912 5914 5915 5916 5916 5916 5920 5921 5920 5921 5921 5920 5918 5916
5830 5832 5833 5834 5835 5837 5840 5843 5844 5847 5850 5853 5855 5857 5860 5864 5867 5869 5871 5873 5874 5876 5879 5882 5888 5892 5896 5900 5902 5904 5906 5909 5910 5912 5913 5911 5911 5916 5918 5919 5919 5920 5919 5917 5913
5826 5829 5831 5832 5833 5836 5839 5841 5843 5846 5849 5852 5854 5857 5860 5862 5865 5867 5868 5869 5870 5871 5875 5879 5883 5888 5891 5895 5899 5901 5903 5907 5908 5909 5909 5909 5910 5912 5914 5916 5916 5918 5916 5914 5911
5822 5825 5828 5830 5832 5834 5837 5840 5842 5845 5847 5850 5853 5856 5858 5861 5863 5865 5866 5867 5868 5870 5873 5878 5882 5886 5889 5893 5895 5899 5904 5905 5905 5906 5906 5907 5908 5910 5911 5912 5914 5914 5912 5910 5907
5818 5821 5824 5827 5829 5832 5835 5838 5841 5843 5846 5849 5852 5855 5858 5860 5862 5863 5865 5867 5868 5870 5873 5877 5882 5887 5889 5892 5895 5899 5901 5902 5903 5903 5903 5904 5907 5908 5910 5911 5912 5910 5909 5907 5905
5813 5817 5820 5823 5827 5830 5834 5837 5840 5842 5845 5848 5851 5854 5857 5859 5861 5862 5864 5866 5868 5872 5875 5879 5882 5885 5889 5892 5894 5897 5899 5900 5900 5901 5901 5902 5905 5906 5907 5908 5908 5908 5906 5905 5902
5807 5812 5815 5819 5822 5826 5831 5835 5838 5842 5845 5847 5850 5853 5856 5858 5861 5862 5864 5866 5869 5873 5876 5880 5883 5886 5889 5892 5893 5895 5897 5898 5899 5899 5899 5901 5904 5904 5905 5906 5905 5905 5904 5903 5901
5802 5806 5810 5815 5819 5822 5827 5832 5836 5840 5843 5846 5849 5852 5855 5857 5860 5862 5865 5867 5869 5872 5876 5879 5881 5884 5887 5889 5891 5893 5895 5895 5897 5898 5898 5899 5900 5902 5902 5903 5902 5901 5901 5901 5900
5794 5800 5804 5809 5814 5818 5823 5828 5832 5836 5841 5844 5848 5851 5854 5856 5859 5861 5864 5867 5869 5872 5875 5877 5879 5882 5884 5886 5888 5890 5892 5893 5894 5896 5897 5897 5898 5898 5898 5900 5900 5899 5898 5898 5898
5787 5793 5798 5804 5809 5814 5818 5823 5828 5832 5837 5841 5845 5848 5851 5854 5857 5859 5862 5865 5868 5870 5873 5875 5877 5880 5881 5882 5883 5885 5888 5890 5892 5892 5893 5894 5895 5895 5895 5895 5895 5895 5894 5894 5893
5778 5785 5792 5798 5803 5809 5813 5819 5824 5829 5833 5836 5840 5844 5847 5850 5853 5857 5859 5862 5865 5868 5870 5873 5875 5876 5878 5878 5879 5881 5883 5886 5888 5889 5890 5890 5891 5890 5889 5889 5889 5888 5889 5889 5889
Wind_Speed
23 22 21 20 18 14 12 11 9 9 6 4 1 2 1 2 2 2 1 1 2 3 5 6 9 10 11 10 11 17 23 21 23 23 25 21 19 20 23 25 22 18 13 9 8
22 23 24 23 21 19 16 14 13 11 10 8 6 3 1 2 4 3 3 1 2 3 4 5 10 4 8 7 9 14 20 20 17 19 21 20 19 17 20 22 23 18 14 11 7
22 22 24 25 24 22 20 17 16 15 13 11 10 7 6 4 4 2 4 4 3 3 5 8 6 5 3 7 9 9 14 19 18 16 17 18 19 17 16 20 24 24 19 12 9
25 23 22 24 25 25 23 21 19 19 17 15 13 11 10 9 7 4 5 6 6 3 6 9 9 1 1 5 9 12 13 15 17 17 15 17 18 19 17 20 21 22 23 22 13
26 25 24 22 23 25 25 24 22 21 20 18 16 14 13 11 11 8 7 7 8 6 8 12 11 5 4 4 6 6 9 6 14 13 14 14 17 20 21 21 23 21 21 21 21
28 27 26 25 24 23 25 26 25 23 22 21 19 17 15 13 13 12 12 9 10 11 9 12 12 8 5 2 4 5 5 5 6 9 9 10 12 13 16 17 19 19 22 20 19
27 28 29 28 27 25 24 26 27 25 24 22 21 20 18 14 15 17 15 11 11 12 12 13 13 11 8 7 2 4 1 3 2 2 5 6 8 10 12 12 12 15 18 18 18
27 28 28 28 30 28 26 26 27 28 27 26 24 23 21 19 20 18 16 14 14 15 16 16 14 12 11 10 8 4 7 12 6 2 2 1 3 6 9 10 9 11 16 13 15
24 27 28 29 28 29 29 28 27 28 28 28 27 27 24 23 22 20 19 18 16 17 18 18 15 14 14 13 16 8 8 9 3 3 7 2 2 3 6 6 8 8 13 16 9
18 21 25 28 28 29 29 29 29 28 27 27 28 28 27 25 24 24 24 20 17 18 20 19 15 16 16 17 20 17 9 9 4 6 8 4 4 5 11 9 9 12 14 14 15
18 19 22 24 26 27 28 28 28 28 28 28 27 26 23 23 25 26 25 23 21 20 19 18 14 12 16 20 21 17 14 9 6 2 2 2 10 9 6 6 5 7 11 14 13
15 17 19 21 23 24 25 26 27 26 27 27 27 26 25 25 24 25 24 23 22 21 19 18 12 14 20 25 22 21 20 15 9 6 5 7 10 8 4 4 1 6 7 10 11
14 14 16 16 18 21 22 23 24 24 23 24 25 26 25 25 24 25 24 24 24 23 20 17 15 17 21 23 23 22 22 20 13 12 10 8 10 9 8 6 6 3 9 9 9
13 12 13 13 14 16 19 20 21 22 23 21 22 22 24 26 25 24 24 23 24 24 23 21 19 20 21 21 23 23 23 22 16 14 13 13 14 15 17 14 10 5 7 7 12
13 11 11 12 13 14 16 17 19 20 21 22 22 21 20 20 20 20 20 20 21 23 24 21 19 23 24 21 23 22 23 26 17 15 16 15 13 10 16 13 10 9 8 3 8
13 11 11 11 11 12 14 15 16 18 21 21 20 21 19 19 19 19 20 22 22 21 23 25 24 24 21 20 20 18 20 23 18 18 19 17 14 3 9 7 3 3 4 7 7
14 11 10 11 11 11 12 13 16 19 14 16 17 19 20 19 18 18 18 19 20 21 21 23 22 21 19 19 17 15 14 21 21 23 20 17 20 7 10 6 4 5 5 8 10
15 12 10 10 12 13 12 12 13 13 12 10 14 17 16 15 14 13 14 17 20 23 21 20 20 19 17 15 12 15 14 16 20 21 20 22 22 8 12 8 3 7 9 12 17
17 15 12 11 10 12 13 12 11 11 10 10 12 14 13 13 11 9 5 5 10 16 18 18 18 19 21 19 16 12 11 12 18 17 17 17 16 7 7 12 13 11 14 18 21
18 17 16 13 11 11 12 12 12 11 10 10 12 14 15 13 9 7 5 5 9 12 14 18 21 21 19 18 17 14 11 16 13 13 13 14 9 7 6 10 9 7 11 14 17
20 19 20 17 14 12 12 13 13 12 10 10 12 12 13 12 9 7 6 5 9 13 17 21 21 19 16 13 11 13 16 14 13 11 10 9 10 11 8 8 7 10 14 17 19
22 22 22 21 18 16 13 13 13 14 11 10 12 13 12 10 10 8 8 8 12 16 21 20 19 19 17 17 16 15 14 11 8 8 11 11 10 13 11 9 5 12 16 11 15
26 23 24 24 22 19 17 16 15 16 13 13 13 9 9 10 12 11 10 15 18 25 23 21 18 18 17 18 17 15 12 11 8 8 7 10 8 10 12 11 11 12 7 8 13
30 26 27 26 24 22 19 18 17 17 16 14 14 14 12 12 12 13 13 15 19 25 24 22 21 20 18 20 21 16 13 15 11 8 5 5 7 9 10 8 10 14 13 14 13
33 30 29 28 28 26 22 20 19 19 18 17 13 9 12 17 16 15 16 16 16 20 21 20 18 18 18 20 20 16 11 16 15 12 8 6 4 3 6 11 11 14 14 11 12
35 34 32 31 30 30 27 24 21 19 19 18 16 14 11 13 17 19 19 18 17 19 19 18 15 9 10 14 16 23 19 17 17 16 15 14 12 9 7 9 13 15 14 14 14
37 36 35 33 32 32 31 28 24 21 21 19 18 16 16 16 17 18 21 20 18 17 15 12 8 5 7 9 11 18 21 19 18 20 19 19 20 20 20 21 17 12 14 13 14
Wind_Direction
236 234 232 236 240 240 240 237 235 225 224 236 197 109 160 280 299 2 330 116 254 228 189 183 147 101 100 104 98 100 89 82 72 68 66 59 57 51 50 49 47 49 58 66 69
238 237 234 233 237 241 241 239 237 230 224 227 235 223 226 286 291 358 357 345 252 264 271 219 161 140 101 88 96 100 95 86 79 71 75 65 59 56 56 58 53 52 59 56 69
242 241 238 235 234 236 240 240 238 235 231 232 234 232 246 254 284 326 304 305 261 253 253 240 228 179 113 70 89 92 102 99 86 76 72 69 65 62 60 58 61 54 54 56 64
241 241 242 239 236 235 235 239 239 237 235 234 235 238 240 248 261 266 273 297 295 268 259 267 254 144 206 85 95 104 87 102 94 83 70 71 70 69 59 50 54 55 50 45 42
241 241 241 241 240 238 235 236 237 238 238 235 234 234 237 245 253 255 264 272 274 250 247 254 263 238 198 156 107 80 104 83 108 94 84 78 80 74 65 52 50 51 56 51 49
242 243 243 243 242 241 239 237 236 236 237 237 235 233 235 243 249 251 255 255 264 267 252 255 256 265 266 226 113 56 107 101 115 107 97 96 96 84 69 56 47 48 47 54 53
244 244 244 244 244 242 241 238 237 237 238 237 236 235 235 243 245 248 254 259 266 270 261 258 253 250 277 271 178 319 173 339 145 77 99 79 97 92 87 71 46 22 25 42 50
246 245 246 246 245 243 241 238 237 237 238 239 239 238 239 240 246 252 260 264 261 264 261 254 246 247 249 253 265 225 300 356 300 310 136 21 85 98 77 67 43 22 6 31 45
246 247 247 245 244 244 242 240 237 238 239 240 239 241 242 242 248 253 255 257 258 259 261 260 248 240 240 251 256 275 282 352 302 317 314 199 114 84 49 55 70 33 9 13 33
250 249 249 247 246 244 243 241 239 238 237 238 240 241 242 244 246 246 247 249 248 253 257 259 252 239 232 243 248 264 269 317 40 49 55 106 187 172 105 88 37 17 10 10 13
255 254 252 248 246 244 241 240 239 237 237 237 238 239 238 236 239 243 244 246 245 246 253 257 247 235 233 238 243 262 271 298 256 129 87 178 172 180 131 115 66 15 352 352 6
259 260 255 251 247 243 240 239 238 238 237 235 235 236 236 236 237 240 240 238 238 240 243 249 238 222 221 230 237 247 253 279 253 223 288 261 197 178 209 203 84 11 354 333 348
260 267 257 251 247 239 238 239 239 236 234 232 232 232 231 231 232 236 239 239 238 237 236 240 223 217 222 229 233 244 252 264 246 227 234 272 260 248 241 237 208 317 325 336 327
264 270 256 250 243 235 236 237 236 233 232 230 229 224 224 227 228 230 235 238 235 235 233 230 223 215 217 220 228 235 246 256 249 267 253 251 256 275 270 244 218 256 303 316 308
261 267 254 250 240 231 229 228 226 227 229 227 223 219 220 226 230 227 229 232 233 233 233 233 226 216 213 213 221 227 233 245 252 262 280 290 275 241 261 247 256 274 286 295 288
254 260 245 242 233 223 220 217 215 218 227 225 220 215 217 220 224 230 232 235 237 239 232 229 225 222 214 215 226 231 236 246 252 259 270 285 274 206 241 214 144 118 205 226 257
244 246 240 230 224 211 205 206 209 216 215 215 210 212 215 218 221 225 229 231 235 236 236 233 224 221 214 217 233 240 236 239 247 258 271 279 270 248 225 208 194 216 267 257 250
234 231 227 220 219 212 209 207 205 212 207 199 193 198 196 200 213 224 235 241 240 230 225 224 220 214 217 215 208 217 220 237 249 263 271 275 272 289 219 213 282 252 282 291 295
227 223 218 217 216 210 208 208 211 208 201 178 185 194 197 199 203 210 193 227 232 220 213 211 205 197 197 201 205 211 219 235 246 260 262 264 279 302 211 235 268 278 285 295 294
222 220 215 215 214 206 203 202 204 203 208 196 194 198 198 198 194 183 173 195 189 183 189 186 184 192 200 203 200 198 214 235 252 259 252 256 248 172 196 225 245 257 278 290 297
219 216 213 215 214 206 197 195 192 190 184 193 205 216 207 196 189 181 172 175 180 177 181 179 185 183 185 197 206 222 235 245 250 249 244 246 208 199 221 243 240 261 281 287 310
220 213 212 213 214 211 196 193 192 187 184 181 202 203 199 186 188 185 184 189 172 175 172 174 173 170 184 200 211 216 216 231 246 255 239 240 205 210 234 272 282 285 302 316 318
220 213 211 211 214 214 205 197 195 186 185 174 187 191 204 199 185 184 177 176 172 176 175 175 181 187 197 207 217 220 228 245 258 275 257 241 203 224 250 266 287 300 302 336 328
218 213 211 210 210 211 205 198 196 192 196 197 186 182 198 209 201 189 189 189 188 188 191 194 201 213 226 221 227 237 235 246 286 295 256 262 248 235 242 259 277 296 310 325 332
215 212 210 208 209 210 209 202 203 203 201 207 205 201 194 197 207 198 198 198 192 192 200 210 217 220 226 229 231 233 216 234 273 291 285 294 304 332 213 232 254 271 280 300 299
213 212 210 210 209 210 211 207 205 207 211 210 209 209 211 203 200 202 203 215 207 207 212 224 239 240 240 246 241 238 235 231 252 259 274 282 297 294 305 293 284 277 264 269 285
212 211 210 210 210 212 214 213 208 208 214 217 220 221 225 221 221 208 208 220 226 228 230 234 252 271 297 306 250 240 237 243 248 259 269 273 286 296 302 306 307 266 241 245 255